SWA2210 KLAS-KLAX

Flight info

Callsign SWA2210
Flight time 0h 37m
Altitude 28000
Route RADYR2 BLAQQ SHTNR ANJLL4
Aircraft B737/M-SDE2E3FGHIRWXY/LB1

Departure

Time 2026-05-06 00:58
Airport Harry Reid International Airport (KLAS)

Arrival

Time 2026-05-06 01:36
Airport Los Angeles International Airport (KLAX)
Time Latitude Longitude Altitude Speed Heading
2026-05-06 00:40 36.08026 -115.14728 2187 ft 0 kts 58°
2026-05-06 00:50 36.08023 -115.14733 2189 ft 3 kts 59°
2026-05-06 00:50 36.08013 -115.14763 2188 ft 4 kts 83°
2026-05-06 00:50 36.08017 -115.14793 2190 ft 4 kts 127°
2026-05-06 00:51 36.08029 -115.14807 2191 ft 0 kts 155°
2026-05-06 00:52 36.08026 -115.14805 2191 ft 3 kts 155°
2026-05-06 00:53 36.07995 -115.14788 2187 ft 6 kts 155°
2026-05-06 00:53 36.07944 -115.14759 2190 ft 10 kts 155°
2026-05-06 00:53 36.07873 -115.14726 2189 ft 12 kts 171°
2026-05-06 00:53 36.07790 -115.14694 2187 ft 13 kts 133°
2026-05-06 00:54 36.07770 -115.14575 2188 ft 16 kts 94°
2026-05-06 00:54 36.07759 -115.14426 2187 ft 19 kts 95°
2026-05-06 00:54 36.07754 -115.14252 2187 ft 22 kts 90°
2026-05-06 00:54 36.07754 -115.14053 2187 ft 24 kts 90°
2026-05-06 00:55 36.07754 -115.13839 2188 ft 24 kts 90°
2026-05-06 00:55 36.07754 -115.13636 2188 ft 23 kts 90°
2026-05-06 00:55 36.07754 -115.13442 2189 ft 22 kts 90°
2026-05-06 00:55 36.07755 -115.13253 2188 ft 22 kts 90°
2026-05-06 00:56 36.07755 -115.13058 2188 ft 24 kts 90°
2026-05-06 00:56 36.07755 -115.12845 2187 ft 26 kts 90°
2026-05-06 00:56 36.07755 -115.12612 2187 ft 28 kts 90°
2026-05-06 00:56 36.07756 -115.12370 2187 ft 28 kts 89°
2026-05-06 00:57 36.07753 -115.12182 2187 ft 15 kts 99°
2026-05-06 00:57 36.07680 -115.12125 2189 ft 13 kts 178°
2026-05-06 00:57 36.07643 -115.12207 2189 ft 15 kts 270°
2026-05-06 00:57 36.07642 -115.12630 2188 ft 86 kts 270°
2026-05-06 00:58 36.07639 -115.13650 2193 ft 147 kts 270°
2026-05-06 00:58 36.07644 -115.15046 2628 ft 163 kts 271°
2026-05-06 00:58 36.07648 -115.16415 3489 ft 161 kts 270°
2026-05-06 00:58 36.07647 -115.17860 4095 ft 178 kts 270°
2026-05-06 00:59 36.07652 -115.19516 4425 ft 210 kts 270°
2026-05-06 00:59 36.07560 -115.21450 4740 ft 238 kts 262°
2026-05-06 00:59 36.07254 -115.23499 5605 ft 245 kts 252°
2026-05-06 00:59 36.06414 -115.25332 6535 ft 249 kts 231°
2026-05-06 01:00 36.05069 -115.26792 7102 ft 271 kts 207°
2026-05-06 01:00 36.03269 -115.27647 7840 ft 283 kts 200°
2026-05-06 01:00 36.01392 -115.28464 8767 ft 288 kts 200°
2026-05-06 01:00 35.99488 -115.29303 9689 ft 293 kts 200°
2026-05-06 01:01 35.97492 -115.29978 10431 ft 304 kts 193°
2026-05-06 01:01 35.95325 -115.30517 10664 ft 332 kts 191°
2026-05-06 01:01 35.92953 -115.31053 10885 ft 359 kts 190°
2026-05-06 01:01 35.90436 -115.31623 11398 ft 372 kts 191°
2026-05-06 01:02 35.87904 -115.32210 12152 ft 378 kts 191°
2026-05-06 01:02 35.85297 -115.32829 12937 ft 383 kts 191°
2026-05-06 01:02 35.82660 -115.33466 13754 ft 388 kts 191°
2026-05-06 01:02 35.79987 -115.34117 14519 ft 393 kts 191°
2026-05-06 01:03 35.77294 -115.34776 15369 ft 395 kts 191°
2026-05-06 01:03 35.74613 -115.35434 16197 ft 398 kts 190°
2026-05-06 01:03 35.71868 -115.36106 16982 ft 403 kts 190°
2026-05-06 01:03 35.69106 -115.36782 17753 ft 407 kts 190°
2026-05-06 01:04 35.67221 -115.37243 18250 ft 410 kts 190°
2026-05-06 01:04 35.64438 -115.37923 18838 ft 415 kts 190°
2026-05-06 01:04 35.61592 -115.38611 19320 ft 417 kts 189°
2026-05-06 01:04 35.58684 -115.38808 19828 ft 421 kts 175°
2026-05-06 01:05 35.55746 -115.38530 20521 ft 423 kts 173°
2026-05-06 01:05 35.52798 -115.38241 21195 ft 426 kts 174°
2026-05-06 01:05 35.49817 -115.37996 21797 ft 431 kts 174°
2026-05-06 01:05 35.46835 -115.37782 22390 ft 436 kts 175°
2026-05-06 01:06 35.43793 -115.38064 22942 ft 445 kts 192°
2026-05-06 01:06 35.40888 -115.39453 23539 ft 451 kts 206°
2026-05-06 01:06 35.38097 -115.41255 24021 ft 455 kts 207°
2026-05-06 01:06 35.35286 -115.43126 24421 ft 461 kts 207°
2026-05-06 01:07 35.32442 -115.45014 24847 ft 466 kts 206°
2026-05-06 01:07 35.29612 -115.46865 25291 ft 469 kts 206°
2026-05-06 01:07 35.26709 -115.48739 25742 ft 473 kts 206°
2026-05-06 01:07 35.23781 -115.50611 26156 ft 477 kts 206°
2026-05-06 01:08 35.20823 -115.52497 26573 ft 480 kts 205°
2026-05-06 01:08 35.17843 -115.54395 27031 ft 483 kts 205°
2026-05-06 01:08 35.14851 -115.56300 27516 ft 484 kts 205°
2026-05-06 01:08 35.11968 -115.58383 27843 ft 489 kts 216°
2026-05-06 01:09 35.09481 -115.61240 27882 ft 493 kts 226°
2026-05-06 01:09 35.07125 -115.64329 27862 ft 496 kts 227°
2026-05-06 01:09 35.04799 -115.67434 27857 ft 494 kts 227°
2026-05-06 01:09 35.02477 -115.70510 27850 ft 492 kts 226°
2026-05-06 01:10 35.00168 -115.73522 27849 ft 492 kts 226°
2026-05-06 01:10 34.97814 -115.76550 27854 ft 491 kts 226°
2026-05-06 01:10 34.95456 -115.79556 27847 ft 490 kts 226°
2026-05-06 01:10 34.93086 -115.82562 27850 ft 490 kts 226°
2026-05-06 01:11 34.90726 -115.85553 27844 ft 490 kts 226°
2026-05-06 01:11 34.88362 -115.88547 27843 ft 489 kts 226°
2026-05-06 01:11 34.86000 -115.91540 27846 ft 489 kts 226°
2026-05-06 01:11 34.83643 -115.94527 27844 ft 489 kts 226°
2026-05-06 01:12 34.81316 -115.97473 27837 ft 488 kts 226°
2026-05-06 01:12 34.78964 -116.00449 27847 ft 488 kts 226°
2026-05-06 01:12 34.76602 -116.03436 27839 ft 487 kts 226°
2026-05-06 01:12 34.74260 -116.06411 27844 ft 487 kts 226°
2026-05-06 01:13 34.71923 -116.09388 27845 ft 486 kts 226°
2026-05-06 01:13 34.69585 -116.12368 27852 ft 485 kts 226°
2026-05-06 01:13 34.67257 -116.15334 27853 ft 485 kts 226°
2026-05-06 01:13 34.64924 -116.18302 27856 ft 484 kts 226°
2026-05-06 01:14 34.60304 -116.24168 27873 ft 483 kts 226°
2026-05-06 01:14 34.57977 -116.27118 27894 ft 482 kts 226°
2026-05-06 01:14 34.55663 -116.30048 27900 ft 482 kts 226°
2026-05-06 01:15 34.53343 -116.32984 27896 ft 481 kts 226°
2026-05-06 01:15 34.51028 -116.35913 27900 ft 480 kts 226°
2026-05-06 01:15 34.48716 -116.38834 27906 ft 479 kts 226°
2026-05-06 01:15 34.46404 -116.41753 27911 ft 479 kts 226°
2026-05-06 01:16 34.44123 -116.44630 27918 ft 478 kts 226°
2026-05-06 01:16 34.41858 -116.47581 27901 ft 478 kts 232°
2026-05-06 01:16 34.40146 -116.50986 27918 ft 467 kts 245°
2026-05-06 01:16 34.38768 -116.54502 27902 ft 459 kts 246°
2026-05-06 01:17 34.37394 -116.58033 27918 ft 467 kts 245°
2026-05-06 01:17 34.35965 -116.61611 27916 ft 475 kts 245°
2026-05-06 01:17 34.34486 -116.65217 27918 ft 479 kts 244°
2026-05-06 01:17 34.32993 -116.68821 27615 ft 479 kts 245°
2026-05-06 01:18 34.31553 -116.72357 27103 ft 469 kts 245°
2026-05-06 01:18 34.30136 -116.75882 26486 ft 461 kts 245°
2026-05-06 01:18 34.28752 -116.79338 25884 ft 453 kts 245°
2026-05-06 01:18 34.27387 -116.82745 25290 ft 446 kts 245°
2026-05-06 01:19 34.26037 -116.86103 24708 ft 440 kts 245°
2026-05-06 01:19 34.24703 -116.89413 24142 ft 434 kts 245°
2026-05-06 01:19 34.23388 -116.92671 23577 ft 429 kts 245°
2026-05-06 01:19 34.22082 -116.95899 22905 ft 425 kts 245°
2026-05-06 01:20 34.20820 -116.99105 22283 ft 419 kts 249°
2026-05-06 01:20 34.19839 -117.02390 21731 ft 412 kts 254°
2026-05-06 01:20 34.19029 -117.05639 21155 ft 407 kts 255°
2026-05-06 01:20 34.18224 -117.08887 20608 ft 401 kts 254°
2026-05-06 01:21 34.17390 -117.12081 20046 ft 396 kts 253°
2026-05-06 01:21 34.16541 -117.15230 19505 ft 392 kts 253°
2026-05-06 01:21 34.15687 -117.18337 18964 ft 388 kts 253°
2026-05-06 01:21 34.14839 -117.21408 18423 ft 384 kts 253°
2026-05-06 01:22 34.13994 -117.24464 17813 ft 380 kts 253°
2026-05-06 01:22 34.13165 -117.27468 17236 ft 376 kts 253°
2026-05-06 01:22 34.12343 -117.30451 16668 ft 372 kts 253°
2026-05-06 01:22 34.11530 -117.33400 16150 ft 367 kts 253°
2026-05-06 01:23 34.10735 -117.36278 15590 ft 364 kts 253°
2026-05-06 01:23 34.09963 -117.39181 15042 ft 361 kts 255°
2026-05-06 01:23 34.09248 -117.42065 14506 ft 358 kts 255°
2026-05-06 01:23 34.08542 -117.44933 13966 ft 355 kts 255°
2026-05-06 01:24 34.07837 -117.47772 13558 ft 349 kts 255°
2026-05-06 01:24 34.07148 -117.50517 13297 ft 337 kts 255°
2026-05-06 01:24 34.06472 -117.53174 12904 ft 331 kts 255°
2026-05-06 01:24 34.05794 -117.55826 12486 ft 329 kts 255°
2026-05-06 01:25 34.05123 -117.58445 12322 ft 323 kts 255°
2026-05-06 01:25 34.04473 -117.60980 12172 ft 311 kts 255°
2026-05-06 01:25 34.03848 -117.63423 12031 ft 299 kts 255°
2026-05-06 01:25 34.03247 -117.65762 11930 ft 283 kts 255°
2026-05-06 01:26 34.02648 -117.68113 11306 ft 323 kts 255°
2026-05-06 01:26 34.02015 -117.70830 11014 ft 340 kts 261°
2026-05-06 01:26 34.01691 -117.73632 10378 ft 335 kts 266°
2026-05-06 01:26 34.01478 -117.76366 9653 ft 328 kts 267°
2026-05-06 01:27 34.01265 -117.79119 8988 ft 320 kts 266°
2026-05-06 01:27 34.01040 -117.81675 8620 ft 304 kts 266°
2026-05-06 01:27 34.00807 -117.84147 8398 ft 288 kts 265°
2026-05-06 01:27 34.00575 -117.86560 8074 ft 294 kts 265°
2026-05-06 01:28 34.00337 -117.89003 7682 ft 290 kts 265°
2026-05-06 01:28 34.00104 -117.91379 7281 ft 280 kts 265°
2026-05-06 01:28 33.99878 -117.93684 6918 ft 276 kts 265°
2026-05-06 01:28 33.99654 -117.95972 6554 ft 275 kts 264°
2026-05-06 01:29 33.99432 -117.98228 6168 ft 273 kts 264°
2026-05-06 01:29 33.99221 -118.00493 5788 ft 271 kts 265°
2026-05-06 01:29 33.99016 -118.02748 5418 ft 269 kts 264°
2026-05-06 01:29 33.98799 -118.04988 5041 ft 268 kts 263°
2026-05-06 01:30 33.98607 -118.06889 4791 ft 265 kts 263°
2026-05-06 01:30 33.98383 -118.09081 4498 ft 260 kts 263°
2026-05-06 01:30 33.98164 -118.11218 4241 ft 253 kts 263°
2026-05-06 01:30 33.97954 -118.13277 3976 ft 241 kts 263°
2026-05-06 01:31 33.97754 -118.15242 3712 ft 231 kts 263°
2026-05-06 01:31 33.97562 -118.17133 3471 ft 222 kts 263°
2026-05-06 01:31 33.97378 -118.18929 3247 ft 214 kts 263°
2026-05-06 01:31 33.97201 -118.20672 3024 ft 204 kts 263°
2026-05-06 01:32 33.97030 -118.22349 2844 ft 201 kts 263°
2026-05-06 01:32 33.96859 -118.24024 2640 ft 200 kts 263°
2026-05-06 01:32 33.96692 -118.25660 2417 ft 192 kts 263°
2026-05-06 01:32 33.96535 -118.27217 2198 ft 183 kts 263°
2026-05-06 01:33 33.96391 -118.28682 2048 ft 172 kts 263°
2026-05-06 01:33 33.96250 -118.30064 1854 ft 159 kts 263°
2026-05-06 01:33 33.96117 -118.31351 1620 ft 150 kts 263°
2026-05-06 01:33 33.95996 -118.32528 1466 ft 133 kts 263°
2026-05-06 01:34 33.95887 -118.33593 1260 ft 127 kts 263°
2026-05-06 01:34 33.95778 -118.34644 1097 ft 126 kts 264°
2026-05-06 01:34 33.95671 -118.35699 895 ft 128 kts 262°
2026-05-06 01:34 33.95559 -118.36771 750 ft 129 kts 262°
2026-05-06 01:35 33.95450 -118.37846 554 ft 128 kts 262°
2026-05-06 01:35 33.95343 -118.38898 348 ft 129 kts 262°
2026-05-06 01:35 33.95232 -118.39963 182 ft 126 kts 263°
2026-05-06 01:35 33.95128 -118.40969 106 ft 111 kts 263°
2026-05-06 01:36 33.95064 -118.41636 107 ft 49 kts 262°
2026-05-06 01:36 33.95021 -118.42016 106 ft 37 kts 255°
2026-05-06 01:36 33.94931 -118.42205 102 ft 17 kts 226°
2026-05-06 01:36 33.94876 -118.42260 103 ft 4 kts 210°
2026-05-06 01:37 33.94871 -118.42264 104 ft 0 kts 205°
2026-05-06 01:38 33.94861 -118.42269 103 ft 7 kts 201°
2026-05-06 01:38 33.94775 -118.42281 104 ft 15 kts 176°
2026-05-06 01:38 33.94688 -118.42233 98 ft 14 kts 111°
2026-05-06 01:39 33.94697 -118.42098 97 ft 21 kts 82°
2026-05-06 01:39 33.94719 -118.41887 99 ft 30 kts 83°
2026-05-06 01:39 33.94744 -118.41625 97 ft 31 kts 83°
2026-05-06 01:39 33.94776 -118.41374 99 ft 29 kts 75°
2026-05-06 01:40 33.94808 -118.41140 99 ft 27 kts 83°
2026-05-06 01:40 33.94830 -118.40911 99 ft 29 kts 83°
2026-05-06 01:40 33.94857 -118.40659 99 ft 31 kts 83°
2026-05-06 01:40 33.94881 -118.40427 99 ft 21 kts 83°
2026-05-06 01:41 33.94876 -118.40308 97 ft 13 kts 131°
2026-05-06 01:41 33.94800 -118.40268 95 ft 9 kts 170°
2026-05-06 01:41 33.94746 -118.40260 95 ft 6 kts 173°
2026-05-06 01:41 33.94718 -118.40244 94 ft 5 kts 113°
2026-05-06 01:42 33.94721 -118.40205 94 ft 3 kts 83°
2026-05-06 01:42 33.94723 -118.40189 95 ft 1 kts 83°
2026-05-06 01:42 33.94723 -118.40188 95 ft 0 kts 83°